CAPE
1 1 0 0 1 2 4 2 0 1 4 1 4 2 2 0 0 0 0 0 0 0 0 0 0 0 0 0 0 0 0 0 0 0 0 0 0 0 0 0 0 0 0 0 0
2 5 3 1 4 4 2 1 2 4 4 4 4 0 0 0 0 0 0 0 0 0 0 0 0 0 0 0 0 0 0 0 0 0 0 0 0 0 0 0 0 0 0 0 0
1 1 1 4 5 5 1 1 5 2 5 3 4 0 0 0 0 0 0 0 0 0 0 0 0 0 0 0 0 0 0 0 0 0 0 0 0 0 0 0 0 0 0 0 0
2 2 1 1 2 0 2 2 2 4 2 4 1 0 0 0 0 0 0 0 0 0 0 0 0 0 0 0 0 0 0 0 0 0 0 0 0 0 0 0 0 0 0 0 0
8 1 5 2 1 2 4 4 3 2 1 3 0 0 0 0 0 0 0 0 0 0 0 0 0 0 0 0 0 0 0 0 0 0 0 0 0 0 0 0 0 0 0 0 0
4 1 1 1 2 4 2 2 4 1 4 3 1 0 0 0 0 0 0 0 0 0 0 0 0 0 0 0 0 0 0 0 0 0 0 0 0 0 0 0 0 0 0 0 0
2 1 0 0 5 5 2 2 0 3 2 0 0 0 0 0 0 0 0 0 0 0 0 0 0 0 0 0 0 0 0 0 0 0 0 0 0 0 0 0 0 0 0 0 0
1 3 1 1 3 0 0 0 1 4 2 1 0 0 0 0 0 0 0 0 0 0 0 0 0 0 0 0 0 0 0 0 0 0 0 0 0 0 0 0 0 0 0 0 0
1 3 2 2 1 0 0 0 0 0 2 0 0 0 0 0 0 0 0 0 0 0 0 0 0 0 0 0 0 0 0 0 0 0 0 0 0 0 0 0 0 0 0 0 0
2 3 2 3 0 0 0 0 0 0 0 0 0 0 0 0 0 0 0 0 0 0 0 0 0 0 0 0 0 0 0 0 0 0 0 0 0 0 0 0 0 0 0 0 0
2 2 3 2 0 0 0 0 0 0 0 0 0 0 0 0 0 0 0 0 0 0 0 0 0 0 0 0 0 0 0 0 0 0 0 0 0 0 0 0 0 0 0 0 0
1 4 2 0 0 0 0 0 0 0 0 0 0 0 0 0 0 0 0 0 0 0 0 0 0 0 0 0 0 0 0 0 0 0 0 0 0 0 0 0 0 0 0 0 0
1 2 1 0 0 0 0 0 0 0 0 0 0 0 0 0 0 0 0 0 0 0 0 0 0 0 0 0 0 0 0 0 0 0 0 0 0 0 0 0 0 0 0 0 0
2 2 0 0 0 0 0 0 0 0 0 0 0 0 0 0 0 0 0 0 0 0 0 0 0 0 0 0 0 0 0 0 0 0 0 0 0 0 0 0 0 0 0 0 0
2 2 0 0 0 0 0 0 0 0 0 0 0 0 0 0 0 0 0 0 0 0 0 0 0 0 0 0 0 0 0 0 0 0 0 0 0 0 0 0 0 0 0 0 0
5 0 0 0 0 0 0 0 0 0 0 0 0 0 0 0 0 0 0 0 0 0 0 0 0 0 0 0 0 0 0 0 0 0 0 0 0 0 0 0 0 0 0 0 0
1 0 0 0 0 0 0 0 0 0 0 0 0 0 0 0 0 0 0 0 0 0 0 0 0 0 0 0 0 0 0 0 0 0 0 0 0 0 0 0 0 0 0 0 0
0 0 0 0 0 0 0 0 0 0 0 0 0 0 0 0 0 0 0 0 0 0 0 0 0 0 0 0 0 0 0 0 0 0 0 0 0 0 0 0 0 0 0 0 0
0 0 0 0 0 0 0 0 0 0 0 0 0 0 0 0 0 0 0 0 0 0 0 0 0 0 0 0 0 0 0 0 0 0 0 0 0 0 0 0 0 0 0 0 0
0 0 0 0 0 0 0 0 0 0 0 0 0 0 0 0 0 0 0 0 0 0 0 0 0 0 0 0 0 0 0 0 0 0 0 0 0 0 0 0 0 0 0 0 0
0 0 0 0 0 0 0 0 0 0 0 0 0 0 0 0 0 0 0 0 0 0 0 0 0 0 0 0 0 0 0 0 0 0 0 0 0 0 0 0 0 0 0 0 0
0 0 0 0 0 0 0 0 0 0 0 0 0 0 0 0 0 0 0 0 0 0 0 0 0 0 0 0 0 0 0 0 0 0 0 0 0 0 0 0 0 0 0 0 0
0 0 0 0 0 0 0 0 0 0 0 0 0 0 0 0 0 0 0 0 0 0 0 0 0 0 0 0 0 0 0 0 0 0 0 0 0 0 0 0 0 0 0 0 0
0 0 0 0 0 0 0 0 0 0 0 0 0 0 0 0 0 0 0 0 0 0 0 0 0 0 0 0 0 0 0 0 0 0 0 0 0 0 0 0 0 0 0 0 0
0 0 0 0 0 0 0 0 0 0 0 0 0 0 0 0 0 0 0 0 0 0 0 0 0 0 0 0 0 0 0 0 0 0 0 0 0 0 0 0 0 0 0 0 0
0 0 0 0 0 0 0 0 0 0 0 0 0 0 0 0 0 0 0 0 0 0 0 0 0 0 0 0 0 0 0 0 0 0 0 0 0 0 0 0 0 0 0 0 0
0 0 0 0 0 0 0 0 0 0 0 0 0 0 0 0 0 0 0 0 0 0 0 0 0 0 0 0 0 0 0 0 0 0 0 0 0 0 0 0 0 0 0 0 0
CIN
-0 -0 -0 -0 -0 -0 -0 -1 -0 -0 -0 -0 -0 -0 -0 -0 -0 -0 -0 -0 -0 -0 -0 -0 -0 -0 -0 -0 -0 -0 -0 -0 -0 -0 -0 -0 -0 -0 -0 -0 -0 -0 -0 -0 -0
-0 -0 -0 -1 -1 -0 -1 -1 -0 -0 -0 -0 -0 -0 -0 -0 -0 -0 -0 -0 -0 -0 -0 -0 -0 -0 -0 -0 -0 -0 -0 -0 -0 -0 -0 -0 -0 -0 -0 -0 -0 -0 -0 -0 -0
-0 -0 -0 -0 -1 -0 -0 -0 -0 -0 -0 -0 -0 -0 -0 -0 -0 -0 -0 -0 -0 -0 -0 -0 -0 -0 -0 -0 -0 -0 -0 -0 -0 -0 -0 -0 -0 -0 -0 -0 -0 -0 -0 -0 -0
-0 -0 -0 -0 -0 -0 -1 -0 -0 -0 -0 -0 -0 -0 -0 -0 -0 -0 -0 -0 -0 -0 -0 -0 -0 -0 -0 -0 -0 -0 -0 -0 -0 -0 -0 -0 -0 -0 -0 -0 -0 -0 -0 -0 -0
-0 -0 -0 -0 -0 -0 -0 -0 -0 -0 -0 -0 -0 -0 -0 -0 -0 -0 -0 -0 -0 -0 -0 -0 -0 -0 -0 -0 -0 -0 -0 -0 -0 -0 -0 -0 -0 -0 -0 -0 -0 -0 -0 -0 -0
-0 -0 -0 -0 -0 -0 -0 -0 -0 -0 -0 -0 -0 -0 -0 -0 -0 -0 -0 -0 -0 -0 -0 -0 -0 -0 -0 -0 -0 -0 -0 -0 -0 -0 -0 -0 -0 -0 -0 -0 -0 -0 -0 -0 -0
-1 -0 -0 -0 -0 -0 -0 -0 -0 -0 -0 -0 -0 -0 -0 -0 -0 -0 -0 -0 -0 -0 -0 -0 -0 -0 -0 -0 -0 -0 -0 -0 -0 -0 -0 -0 -0 -0 -0 -0 -0 -0 -0 -0 -0
-0 -0 -0 -0 -0 -0 -0 -0 -0 -0 -0 -0 -0 -0 -0 -0 -0 -0 -0 -0 -0 -0 -0 -0 -0 -0 -0 -0 -0 -0 -0 -0 -0 -0 -0 -0 -0 -0 -0 -0 -0 -0 -0 -0 -0
-0 -0 -0 -0 -0 -0 -0 -0 -0 -0 -0 -0 -0 -0 -0 -0 -0 -0 -0 -0 -0 -0 -0 -0 -0 -0 -0 -0 -0 -0 -0 -0 -0 -0 -0 -0 -0 -0 -0 -0 -0 -0 -0 -0 -0
-0 -0 -0 -0 -0 -0 -0 -0 -0 -0 -0 -0 -0 -0 -0 -0 -0 -0 -0 -0 -0 -0 -0 -0 -0 -0 -0 -0 -0 -0 -0 -0 -0 -0 -0 -0 -0 -0 -0 -0 -0 -0 -0 -0 -0
-0 -0 -0 -0 -0 -0 -0 -0 -0 -0 -0 -0 -0 -0 -0 -0 -0 -0 -0 -0 -0 -0 -0 -0 -0 -0 -0 -0 -0 -0 -0 -0 -0 -0 -0 -0 -0 -0 -0 -0 -0 -0 -0 -0 -0
-0 -0 -0 -0 -0 -0 -0 -0 -0 -0 -0 -0 -0 -0 -0 -0 -0 -0 -0 -0 -0 -0 -0 -0 -0 -0 -0 -0 -0 -0 -0 -0 -0 -0 -0 -0 -0 -0 -0 -0 -0 -0 -0 -0 -0
-0 -0 -0 -0 -0 -0 -0 -0 -0 -0 -0 -0 -0 -0 -0 -0 -0 -0 -0 -0 -0 -0 -0 -0 -0 -0 -0 -0 -0 -0 -0 -0 -0 -0 -0 -0 -0 -0 -0 -0 -0 -0 -0 -0 -0
-0 -0 -0 -0 -0 -0 -0 -0 -0 -0 -0 -0 -0 -0 -0 -0 -0 -0 -0 -0 -0 -0 -0 -0 -0 -0 -0 -0 -0 -0 -0 -0 -0 -0 -0 -0 -0 -0 -0 -0 -0 -0 -0 -0 -0
-1 -0 -0 -0 -0 -0 -0 -0 -0 -0 -0 -0 -0 -0 -0 -0 -0 -0 -0 -0 -0 -0 -0 -0 -0 -0 -0 -0 -0 -0 -0 -0 -0 -0 -0 -0 -0 -0 -0 -0 -0 -0 -0 -0 -0
-1 -0 -0 -0 -0 -0 -0 -0 -0 -0 -0 -0 -0 -0 -0 -0 -0 -0 -0 -0 -0 -0 -0 -0 -0 -0 -0 -0 -0 -0 -0 -0 -0 -0 -0 -0 -0 -0 -0 -0 -0 -0 -0 -0 -0
-1 -0 -0 -0 -0 -0 -0 -0 -0 -0 -0 -0 -0 -0 -0 -0 -0 -0 -0 -0 -0 -0 -0 -0 -0 -0 -0 -0 -0 -0 -0 -0 -0 -0 -0 -0 -0 -0 -0 -0 -0 -0 -0 -0 -0
-0 -0 -0 -0 -0 -0 -0 -0 -0 -0 -0 -0 -0 -0 -0 -0 -0 -0 -0 -0 -0 -0 -0 -0 -0 -0 -0 -0 -0 -0 -0 -0 -0 -0 -0 -0 -0 -0 -0 -0 -0 -0 -0 -0 -0
-0 -0 -0 -0 -0 -0 -0 -0 -0 -0 -0 -0 -0 -0 -0 -0 -0 -0 -0 -0 -0 -0 -0 -0 -0 -0 -0 -0 -0 -0 -0 -0 -0 -0 -0 -0 -0 -0 -0 -0 -0 -0 -0 -0 -0
-0 -0 -0 -0 -0 -0 -0 -0 -0 -0 -0 -0 -0 -0 -0 -0 -0 -0 -0 -0 -0 -0 -0 -0 -0 -0 -0 -0 -0 -0 -0 -0 -0 -0 -0 -0 -0 -0 -0 -0 -0 -0 -0 -0 -0
-0 -0 -0 -0 -0 -0 -0 -0 -0 -0 -0 -0 -0 -0 -0 -0 -0 -0 -0 -0 -0 -0 -0 -0 -0 -0 -0 -0 -0 -0 -0 -0 -0 -0 -0 -0 -0 -0 -0 -0 -0 -0 -0 -0 -0
-0 -0 -0 -0 -0 -0 -0 -0 -0 -0 -0 -0 -0 -0 -0 -0 -0 -0 -0 -0 -0 -0 -0 -0 -0 -0 -0 -0 -0 -0 -0 -0 -0 -0 -0 -0 -0 -0 -0 -0 -0 -0 -0 -0 -0
-0 -0 -0 -0 -0 -0 -0 -0 -0 -0 -0 -0 -0 -0 -0 -0 -0 -0 -0 -0 -0 -0 -0 -0 -0 -0 -0 -0 -0 -0 -0 -0 -0 -0 -0 -0 -0 -0 -0 -0 -0 -0 -0 -0 -0
-0 -0 -0 -0 -0 -0 -0 -0 -0 -0 -0 -0 -0 -0 -0 -0 -0 -0 -0 -0 -0 -0 -0 -0 -0 -0 -0 -0 -0 -0 -0 -0 -0 -0 -0 -0 -0 -0 -0 -0 -0 -0 -0 -0 -0
-0 -0 -0 -0 -0 -0 -0 -0 -0 -0 -0 -0 -0 -0 -0 -0 -0 -0 -0 -0 -0 -0 -0 -0 -0 -0 -0 -0 -0 -0 -0 -0 -0 -0 -0 -0 -0 -0 -0 -0 -0 -0 -0 -0 -0
-0 -0 -0 -0 -0 -0 -0 -0 -0 -0 -0 -0 -0 -0 -0 -0 -0 -0 -0 -0 -0 -0 -0 -0 -0 -0 -0 -0 -0 -0 -0 -0 -0 -0 -0 -0 -0 -0 -0 -0 -0 -0 -0 -0 -0
-0 -0 -0 -0 -0 -0 -0 -0 -0 -0 -0 -0 -0 -0 -0 -0 -0 -0 -0 -0 -0 -0 -0 -0 -0 -0 -0 -0 -0 -0 -0 -0 -0 -0 -0 -0 -0 -0 -0 -0 -0 -0 -0 -0 -0
Wind_Speed
24 24 25 25 25 26 26 26 26 25 23 22 22 22 21 20 19 15 16 16 17 19 18 17 17 16 16 16 16 15 19 20 21 20 20 19 22 19 21 22 25 23 20 23 27
24 25 25 26 26 27 27 27 26 25 23 22 21 19 19 19 16 17 16 18 18 17 16 16 16 15 17 16 16 16 19 19 18 18 20 24 22 23 24 29 27 26 26 28 26
25 25 26 26 27 27 28 28 27 26 24 22 19 18 17 17 16 16 17 18 17 16 16 15 16 16 16 17 16 17 19 17 19 18 20 23 23 19 23 27 30 33 32 31 29
25 26 27 27 27 28 28 27 26 25 23 20 19 18 16 15 19 16 17 18 17 15 16 16 16 16 16 15 15 18 16 16 19 18 21 24 21 21 18 24 31 34 32 31 32
25 26 27 28 28 28 28 27 25 24 23 21 19 17 16 17 16 16 17 17 16 16 16 16 15 15 15 15 16 16 17 18 19 20 21 21 22 20 21 24 29 30 30 31 30
26 27 28 28 29 29 28 27 25 24 24 20 17 16 17 17 16 17 17 16 17 16 15 16 15 15 17 16 16 18 18 20 21 22 19 22 23 20 17 28 28 25 26 27 28
26 28 28 29 30 30 28 26 24 22 22 17 15 16 17 16 16 17 17 17 16 15 14 16 16 15 16 17 18 19 21 22 20 20 21 21 22 18 24 26 29 28 26 26 27
27 27 28 29 30 29 27 25 22 21 19 16 15 17 16 16 16 17 16 16 16 16 15 15 16 15 16 17 20 20 21 21 19 20 21 20 22 23 28 25 27 29 28 27 27
27 28 29 30 31 29 27 23 19 19 17 17 18 18 16 17 16 16 16 15 16 16 17 16 16 16 17 17 19 21 18 21 22 20 22 23 21 26 27 25 28 28 28 27 28
27 27 29 29 30 29 27 19 17 16 17 17 17 15 16 16 17 17 17 16 16 16 17 18 18 17 18 17 19 19 19 21 21 21 25 25 22 24 26 25 25 26 26 27 27
27 28 28 30 28 26 21 18 19 20 17 15 15 15 15 16 16 17 16 16 18 18 18 19 19 18 19 17 20 21 22 23 22 21 23 23 24 24 24 24 25 25 25 26 26
27 28 28 29 26 22 18 19 18 17 19 16 17 17 16 16 17 16 15 17 18 20 18 20 21 20 19 19 20 22 24 25 24 18 22 22 27 21 22 22 22 23 24 24 24
25 27 28 27 21 19 18 17 17 16 18 19 18 18 17 16 17 17 16 17 19 20 20 21 20 21 20 20 20 22 24 24 24 24 23 25 27 21 20 19 20 21 22 23 23
23 25 26 27 18 17 17 16 16 16 21 19 19 19 16 16 18 17 16 17 20 22 20 22 20 21 20 21 18 24 18 21 23 24 26 22 29 24 18 19 21 21 21 22 23
23 23 24 21 17 17 16 16 16 17 31 18 18 17 16 17 15 17 16 17 20 21 19 22 22 22 22 21 15 22 20 21 22 24 27 23 27 28 19 20 20 20 21 20 21
20 22 22 18 17 17 16 15 16 20 27 18 19 18 18 19 18 17 17 18 18 21 21 22 21 22 21 19 16 15 20 23 24 25 31 26 24 29 24 22 17 17 19 19 19
19 21 19 17 16 16 15 15 20 24 20 19 19 18 19 21 20 20 21 21 22 27 27 26 23 22 19 22 19 18 21 29 30 28 31 26 24 26 20 17 11 11 15 18 18
19 19 17 16 16 14 14 15 25 21 20 19 20 20 21 21 22 22 24 26 22 23 29 31 34 21 19 20 22 20 21 25 31 30 31 22 28 25 21 12 10 12 14 15 17
17 18 16 17 14 13 15 22 24 22 20 18 21 23 24 24 24 24 25 26 24 19 26 28 30 23 22 22 20 24 26 22 29 29 35 30 29 25 18 15 14 14 15 16 18
17 16 16 17 14 15 18 24 24 20 19 19 22 22 26 25 25 25 26 24 25 20 21 26 33 25 25 23 23 24 18 26 25 33 36 32 31 29 19 17 17 17 17 18 20
15 18 18 14 14 17 24 24 22 19 18 20 23 25 25 27 25 28 28 26 23 22 20 23 26 29 26 25 26 25 26 25 25 27 34 37 32 24 24 16 16 17 18 21 23
15 23 17 13 19 21 23 22 19 19 19 22 23 24 25 25 28 28 29 26 21 21 26 23 27 34 31 26 24 24 26 25 30 34 30 32 36 26 25 19 16 19 20 23 25
17 19 17 15 23 23 23 23 22 22 22 23 24 24 23 26 30 26 26 23 21 22 24 22 28 37 34 29 25 26 25 24 24 27 33 36 34 25 23 21 20 23 25 28 32
16 21 20 19 22 22 23 25 25 22 23 22 23 22 24 26 25 29 28 25 22 22 21 22 28 32 37 33 26 28 25 23 24 31 33 34 37 31 27 26 28 30 32 36 39
19 21 19 24 25 23 21 24 25 26 22 20 25 24 24 29 28 30 26 26 24 23 23 24 35 30 30 31 32 32 31 28 29 31 35 38 38 34 33 33 34 37 43 43 43
20 21 19 22 22 20 23 26 25 24 21 24 25 22 21 26 26 30 24 25 27 24 23 23 31 29 35 32 34 38 33 31 32 33 36 38 40 38 37 31 34 34 36 40 43
18 18 20 22 22 22 24 24 24 19 20 20 19 21 22 21 20 22 21 23 25 25 23 25 26 30 37 34 39 43 34 31 31 31 31 35 36 34 33 32 32 35 37 41 43
Wind_Direction
331 329 328 327 328 328 330 333 338 342 349 354 351 352 354 355 358 12 2 5 360 355 2 8 10 11 12 8 9 7 344 337 335 339 337 344 337 332 321 307 302 298 297 298 300
326 325 325 327 327 327 330 331 335 344 349 352 354 0 1 0 5 1 8 0 1 6 11 11 8 15 3 5 5 357 346 342 346 345 337 331 337 329 317 300 293 292 291 295 298
326 324 323 324 326 326 329 331 335 339 345 351 359 2 5 5 1 359 1 0 7 14 17 17 14 8 1 2 2 360 348 352 346 345 341 332 334 339 321 304 292 284 285 287 290
330 331 329 332 333 331 332 336 340 345 351 356 357 360 7 11 348 5 360 360 5 11 9 9 9 6 7 3 3 355 355 352 348 350 342 334 340 336 333 317 296 285 285 284 280
330 329 328 328 328 327 328 334 340 345 347 351 357 4 6 354 352 359 358 359 2 3 359 1 6 8 6 6 359 357 356 352 345 340 337 334 330 334 331 328 308 293 283 281 280
327 324 325 324 325 326 331 334 341 344 345 353 1 7 356 346 358 356 357 359 355 357 357 356 2 2 359 1 358 358 353 346 343 339 342 333 330 334 340 332 312 305 292 286 282
325 323 324 325 327 327 332 339 343 350 352 4 9 3 352 351 356 356 357 354 356 356 356 357 358 3 359 357 352 353 348 349 353 352 350 347 334 337 341 335 308 294 297 292 289
325 329 330 330 330 333 336 340 347 353 1 9 7 356 353 356 355 352 353 352 354 355 357 358 355 1 352 351 348 347 348 349 355 354 353 353 340 341 336 335 316 298 292 295 292
329 331 333 332 330 332 334 341 350 355 2 360 353 350 353 347 348 350 349 349 351 351 353 355 350 350 349 344 342 344 343 344 342 352 345 345 341 338 345 340 322 310 294 299 295
331 335 335 334 332 333 334 347 354 360 355 348 349 352 351 347 346 345 348 350 348 348 346 345 344 340 341 340 334 340 339 337 337 343 336 332 335 339 342 344 333 318 311 301 301
330 334 336 333 335 336 345 349 344 342 351 348 353 354 348 345 347 343 346 345 342 342 338 340 334 329 332 331 331 332 330 328 330 335 334 331 328 333 336 341 338 336 321 311 309
329 332 334 334 335 342 349 343 344 346 341 344 339 339 339 340 335 338 343 337 335 330 335 331 324 328 328 326 324 323 322 322 327 334 332 328 320 329 332 335 338 339 338 323 314
332 332 333 334 340 344 347 347 348 346 341 340 336 334 335 336 330 332 336 335 331 327 327 322 328 334 331 324 320 318 316 319 319 324 324 321 316 317 326 332 334 340 344 338 328
331 334 335 332 341 344 343 346 344 343 332 336 336 337 342 340 332 338 339 336 331 327 329 325 329 326 323 322 319 316 322 321 319 319 316 326 314 314 317 319 322 325 330 334 335
329 332 334 339 339 338 341 340 340 341 319 341 339 348 347 343 346 341 345 340 329 328 332 328 330 330 325 323 324 320 325 322 320 314 314 313 311 311 313 309 312 317 321 327 330
330 329 330 333 335 335 334 336 338 328 316 330 333 334 334 334 336 341 338 342 340 329 325 320 325 325 326 331 325 331 326 323 320 314 304 306 302 307 306 306 306 315 318 321 325
324 325 328 331 329 332 333 327 321 314 328 324 329 331 327 327 328 330 327 325 324 323 322 325 321 322 319 316 321 317 317 313 311 307 301 313 303 302 312 318 312 317 321 318 322
320 322 324 327 329 329 325 320 308 318 315 325 326 324 321 324 324 324 323 318 319 320 319 318 317 321 324 311 314 304 301 304 307 306 308 313 302 308 317 319 317 318 317 318 318
319 318 317 322 328 325 313 303 309 310 316 315 319 315 315 318 320 320 317 316 320 316 315 318 316 322 320 320 315 313 302 303 301 305 302 300 301 306 310 306 302 303 307 307 310
311 312 312 317 323 314 305 301 308 314 318 315 311 315 314 316 316 317 317 322 322 320 320 320 314 319 317 317 311 306 313 306 301 298 296 299 298 298 301 293 292 294 297 301 304
309 306 311 318 317 306 297 302 307 310 313 313 310 312 312 313 311 313 316 321 321 322 321 318 312 314 318 311 306 304 299 301 302 297 296 296 299 311 309 294 285 289 295 297 298
303 297 310 312 299 304 298 306 311 309 308 309 312 311 309 312 311 311 311 315 324 323 317 315 314 308 308 313 312 307 302 297 290 293 296 295 291 308 308 303 289 291 295 299 300
294 300 309 302 295 294 304 306 304 305 304 307 307 311 314 311 310 311 316 323 322 318 319 318 312 310 312 311 309 302 302 299 299 298 289 289 293 311 310 305 296 291 292 294 296
294 294 300 294 301 298 297 299 299 305 306 306 309 313 313 310 313 314 314 321 323 319 319 318 308 303 301 306 311 305 304 302 297 292 292 288 293 298 300 297 293 291 290 292 294
290 292 297 297 291 290 295 302 299 299 303 306 307 304 308 309 311 310 314 317 318 317 316 312 304 304 302 300 300 297 295 294 290 293 291 294 292 294 295 293 291 291 291 292 294
286 291 298 301 302 290 291 297 296 301 303 303 303 309 308 309 311 313 316 315 314 315 311 312 306 308 303 303 300 296 295 292 290 290 289 291 289 296 296 297 295 296 298 297 298
281 299 298 299 300 299 298 297 299 302 304 311 309 311 308 309 317 320 319 319 317 314 307 308 306 307 302 306 303 297 296 290 292 292 291 290 295 300 300 296 296 300 301 301 301